Weather History for Jackson, WY

Change the Weather History Date:

Tuesday, March 5, 2013

  Actual Average Record
Temperature  
Mean Temperature 10 °F -  
Max Temperature 30 °F 35 °F 50 °F (1968)
Min Temperature -9 °F 3 °F -23 °F (1966)
Degree Days  
Heating Degree Days 54    
Moisture  
Dew Point 0 °F    
Average Humidity 80    
Maximum Humidity 100    
Minimum Humidity 29    
Precipitation  
Precipitation 0.00 in - - ()
Sea Level Pressure  
Sea Level Pressure 30.15 in    
Wind  
Wind Speed 7 mph (North)    
Max Wind Speed 12 mph    
Max Gust Speed -    
Visibility 10 miles    
Events      
Averages and records for this station are not official NWS values.
T = Trace of Precipitation, MM = Missing Value Source: NWS Daily Summary

Daily Weather History Graph

Daily Weather History Graph

Search for Another Location

Airport:

Trip Planner

Search our weather history database for the weather conditions in past years. The results will help you decide how hot, cold, wet, or windy it might be!

Date:

Astronomy

Mar. 05, 2013 Rise Set
Actual Time 6:52 AM MST 6:17 PM MST
Civil Twilight 6:23 AM MST 6:45 PM MST
Nautical Twilight 5:50 AM MST 7:19 PM MST
Astronomical Twilight 5:17 AM MST 7:52 PM MST
Moon 2:15 AM MST (3/5) 11:51 AM MST (3/5)
Length of Visible Light 12h 22m
Length of Day
11h 25m
Last Quarter, 40% of the Moon is Illuminated
Mar 5
Last Quarter
Mar 11
New
Mar 19
First Quarter
Mar 27
Full
Apr 2
Last Quarter

Hourly Weather History & Observations

Time (MST) Temp. Windchill Dew Point Humidity Pressure Visibility Wind Dir Wind Speed Gust Speed Precip Events Conditions
12:35 AM -0.4 °F -15.7 °F -2.2 °F 92% 30.22 in 10.0 mi North 9.2 mph - N/A   Clear
12:55 AM 1.4 °F -13.5 °F -2.2 °F 85% 30.22 in 10.0 mi North 9.2 mph - N/A   Clear
1:15 AM -0.4 °F -13.4 °F -4.0 °F 85% 30.23 in 10.0 mi North 6.9 mph - N/A   Clear
1:35 AM -0.4 °F -15.7 °F -2.2 °F 92% 30.23 in 10.0 mi North 9.2 mph - N/A   Clear
1:55 AM -0.4 °F -15.7 °F -2.2 °F 92% 30.24 in 10.0 mi North 9.2 mph - N/A   Clear
2:15 AM -2.2 °F -18.0 °F -5.8 °F 85% 30.24 in 10.0 mi North 9.2 mph - N/A   Clear
2:35 AM -2.2 °F -18.0 °F -5.8 °F 85% 30.24 in 10.0 mi North 9.2 mph - N/A   Clear
2:55 AM -4.0 °F -21.2 °F -7.6 °F 85% 30.24 in 10.0 mi North 10.4 mph - N/A   Clear
3:15 AM -5.8 °F -22.4 °F -7.6 °F 92% 30.23 in 10.0 mi North 9.2 mph - N/A   Clear
3:35 AM -5.8 °F -21.2 °F -7.6 °F 92% 30.22 in 10.0 mi North 8.1 mph - N/A   Clear
4:15 AM -4.0 °F -17.8 °F -5.8 °F 92% 30.22 in 10.0 mi North 6.9 mph - N/A   Clear
4:35 AM -5.8 °F -19.9 °F -7.6 °F 92% 30.23 in 10.0 mi North 6.9 mph - N/A   Clear
4:55 AM -7.6 °F -22.1 °F -9.4 °F 92% 30.23 in 10.0 mi North 6.9 mph - N/A   Clear
5:15 AM -7.6 °F -23.4 °F -9.4 °F 92% 30.24 in 10.0 mi North 8.1 mph - N/A   Clear
5:35 AM -9.4 °F -26.8 °F -11.2 °F 92% 30.24 in 10.0 mi North 9.2 mph - N/A   Clear
5:55 AM -7.6 °F -23.4 °F -11.2 °F 84% 30.24 in 10.0 mi North 8.1 mph - N/A   Clear
6:15 AM -9.4 °F -24.3 °F -11.2 °F 92% 30.24 in 10.0 mi NNE 6.9 mph - N/A   Clear
6:35 AM -7.6 °F -22.1 °F -11.2 °F 84% 30.25 in 10.0 mi North 6.9 mph - N/A   Clear
6:51 AM -9.4 °F -25.6 °F -9.4 °F 100% 30.25 in 10.0 mi North 8.1 mph - N/A   Clear
7:54 AM -7.6 °F -24.6 °F -11.2 °F 84% 30.25 in 10.0 mi North 9.2 mph - N/A   Clear
9:51 AM 1.4 °F -9.9 °F -2.2 °F 85% 30.24 in 10.0 mi North 5.8 mph - N/A   Clear
10:52 AM 8.6 °F - -0.4 °F 67% 30.22 in 10.0 mi Calm Calm - N/A   Clear
12:53 PM 15.8 °F - 3.2 °F 58% 30.15 in 10.0 mi Calm Calm - N/A   Clear
1:54 PM 19.4 °F - 6.8 °F 58% 30.11 in 10.0 mi Calm Calm - N/A   Clear
2:54 PM 19.4 °F - 8.6 °F 63% 30.07 in 10.0 mi Calm Calm - N/A   Clear
3:55 PM 21.2 °F - 10.4 °F 63% 30.05 in 10.0 mi Calm Calm - N/A   Clear
4:51 PM 23.0 °F - 10.4 °F 59% 30.02 in 10.0 mi Calm Calm - N/A   Clear
5:51 PM 21.2 °F 10.1 °F 10.4 °F 63% 30.01 in 10.0 mi North 10.4 mph - N/A   Clear
6:51 PM 21.2 °F 16.4 °F 10.4 °F 63% 30.03 in 10.0 mi East 3.5 mph - N/A   Clear
7:51 PM 17.6 °F 12.3 °F 10.4 °F 73% 30.03 in 10.0 mi East 3.5 mph - N/A   Clear
8:51 PM 15.8 °F - 8.6 °F 73% 30.03 in 10.0 mi Calm Calm - N/A   Clear
8:55 PM 15.8 °F 7.2 °F 8.6 °F 73% 30.03 in 10.0 mi North 5.8 mph - N/A   Clear
9:15 PM 12.2 °F 0.7 °F 8.6 °F 85% 30.02 in 10.0 mi North 8.1 mph - N/A   Clear
9:35 PM 10.4 °F -3.3 °F 6.8 °F 85% 30.02 in 10.0 mi North 10.4 mph - N/A   Clear
9:46 PM 30.2 °F 26.7 °F 1.4 °F 29% 30.14 in 20.0 mi WNW 3.5 mph - N/A   Clear
10:15 PM 10.4 °F -3.3 °F 6.8 °F 85% 30.03 in 10.0 mi North 10.4 mph - N/A   Clear
10:35 PM 10.4 °F -3.3 °F 6.8 °F 85% 30.02 in 10.0 mi North 10.4 mph - N/A   Clear
10:55 PM 8.6 °F -6.3 °F 6.8 °F 92% 30.02 in 10.0 mi North 11.5 mph - N/A   Clear
11:15 PM 10.4 °F 0.8 °F 5.0 °F 79% 30.02 in 10.0 mi NNE 5.8 mph - N/A   Clear
11:35 PM 8.6 °F -6.3 °F 5.0 °F 85% 30.02 in 10.0 mi North 11.5 mph - N/A   Clear
11:55 PM 8.6 °F -5.5 °F 5.0 °F 85% 30.01 in 10.0 mi North 10.4 mph - N/A   Clear